SCP
1 0 0 0 0 0 0 0 0 0 0 0 0 0 0 0 0 0 0 0 0 0 0 0 0 0 0 0 0 0 0 0 0 0 0 0 0 0 0 0 0 0 0
1 0 0 0 0 0 0 0 0 0 0 0 0 0 0 0 0 0 0 0 0 0 0 0 0 0 0 0 0 0 0 0 0 0 0 0 0 0 0 0 0 0 0
0 0 0 0 0 0 0 0 0 0 0 0 0 0 0 0 0 0 0 0 0 0 0 0 0 0 0 0 0 0 0 0 0 0 0 0 0 0 0 0 0 0 0
0 0 0 0 0 0 0 0 0 0 0 0 0 0 0 0 0 0 0 0 0 0 0 0 0 0 0 0 0 0 0 0 0 0 0 0 0 0 0 0 0 0 0
0 0 0 0 0 0 0 0 0 0 0 0 0 0 0 0 0 0 0 0 0 0 0 0 0 0 0 0 0 0 0 0 0 0 0 0 0 0 0 0 0 0 0
0 0 0 0 0 0 0 0 0 0 0 0 0 0 0 0 0 0 0 0 0 0 0 0 0 0 0 0 0 0 0 0 0 0 0 0 0 0 0 0 0 0 0
0 0 0 0 0 0 0 0 0 0 0 0 0 0 0 0 0 0 0 0 0 0 0 0 0 0 0 0 0 0 0 0 0 0 0 0 0 0 0 0 0 0 0
0 0 0 0 0 0 0 0 0 0 0 0 0 0 0 0 0 0 0 0 0 0 0 0 0 0 0 0 0 0 0 0 0 0 0 0 0 0 0 0 0 0 0
0 0 0 0 0 0 0 0 0 0 0 0 0 0 0 0 0 0 0 0 0 0 0 0 0 0 0 0 0 0 0 0 0 0 0 0 0 0 0 0 0 0 0
0 0 0 0 0 0 0 0 0 0 0 0 0 0 0 0 0 0 0 0 0 0 0 0 0 0 0 0 0 0 0 0 0 0 0 0 0 0 0 0 0 0 0
0 0 0 0 0 0 0 0 0 0 0 0 0 0 0 0 0 0 0 0 0 0 0 0 0 0 0 0 0 0 0 0 0 0 0 0 0 0 0 0 0 0 0
0 0 0 0 0 0 0 0 0 0 0 0 0 0 0 0 0 0 0 0 0 0 0 0 0 0 0 0 0 0 0 0 0 0 0 0 0 0 0 0 0 0 0
0 0 0 0 0 0 0 0 0 0 0 0 0 0 0 0 0 0 0 0 0 0 0 0 0 0 0 0 0 0 0 0 0 0 0 0 0 0 0 0 0 0 0
0 0 0 0 0 0 0 0 0 0 0 0 0 0 0 0 0 0 0 0 0 0 0 0 0 0 0 0 0 0 0 0 0 0 0 0 0 0 0 0 0 0 0
0 0 0 0 0 0 0 0 0 0 0 0 0 0 0 0 0 0 0 0 0 0 0 0 0 0 0 0 0 0 0 0 0 0 0 0 0 0 0 0 0 0 0
0 0 0 0 0 0 0 0 0 0 0 0 0 0 0 0 0 0 0 0 0 0 0 0 0 0 0 0 0 0 0 0 0 0 0 0 0 0 0 0 0 0 0
0 0 0 0 0 0 0 0 0 0 0 0 0 0 0 0 0 0 0 0 0 0 0 0 0 0 0 0 0 0 0 0 0 0 0 0 0 0 0 0 0 0 0
0 0 0 0 0 0 0 0 0 0 0 0 0 0 0 0 0 0 0 0 0 0 0 0 0 0 0 0 0 0 0 0 0 0 0 0 0 0 0 0 0 0 0
0 0 0 0 0 0 0 0 0 0 0 0 0 0 0 0 0 0 0 0 0 0 0 0 0 0 0 0 0 0 0 0 0 0 0 0 0 0 0 0 0 0 0
0 0 0 0 0 0 0 0 0 0 0 0 0 0 0 0 0 0 0 0 0 0 0 0 0 0 0 0 0 0 0 0 0 0 0 0 0 0 0 0 0 0 0
0 0 0 0 0 0 0 0 0 0 0 0 0 0 0 0 0 0 0 0 0 0 0 0 0 0 0 0 0 0 0 0 0 0 0 0 0 0 0 0 0 0 0
0 0 0 0 0 0 0 0 0 0 0 0 0 0 0 0 0 0 0 0 0 0 0 0 0 0 0 0 0 0 0 0 0 0 0 0 0 0 0 0 0 0 0
0 0 0 0 0 0 0 0 0 0 0 0 0 0 0 0 0 0 0 0 0 0 0 0 0 0 0 0 0 0 0 0 0 0 0 0 0 0 0 0 0 0 0
0 0 0 0 0 0 0 0 0 0 0 0 0 0 0 0 0 0 0 0 0 0 0 0 0 0 0 0 0 0 0 0 0 0 0 0 0 0 0 0 0 0 0
0 0 0 0 0 0 0 0 0 0 0 0 0 0 0 0 0 0 0 0 0 0 0 0 0 0 0 0 0 0 0 0 0 0 0 0 0 0 0 0 0 0 0
0 0 0 0 0 0 0 0 0 0 0 0 0 0 0 0 0 0 0 0 0 0 0 0 0 0 0 0 0 0 0 0 0 0 0 0 0 0 0 0 0 0 0
Wind_Speed
6 6 7 7 7 8 8 8 8 7 7 7 7 8 8 9 8 10 9 10 11 9 8 9 9 7 7 6 5 5 5 5 7 3 2 1 2 2 2 2 1 1 1
6 7 8 8 8 9 9 8 8 9 8 8 8 9 9 10 9 10 11 10 11 10 9 9 9 7 8 6 6 6 5 5 6 6 2 3 3 2 2 2 2 1 1
7 8 9 9 9 9 9 8 9 9 9 9 9 10 10 10 10 10 11 11 11 10 9 9 8 9 9 7 7 7 6 6 5 6 3 2 2 2 2 2 3 3 2
7 8 9 9 9 9 9 9 9 9 10 9 10 9 9 10 10 10 11 11 11 10 10 9 8 8 8 8 7 7 7 7 6 5 4 2 2 2 2 2 2 3 2
7 8 8 8 8 9 10 10 10 10 10 9 10 10 9 8 9 10 10 11 10 11 10 9 9 10 10 7 6 6 7 6 5 5 3 2 2 2 2 2 2 2 1
8 8 8 8 9 9 9 9 10 10 9 9 10 9 9 8 12 13 10 9 9 10 9 8 9 10 12 13 12 9 7 6 5 3 2 2 1 0 0 1 1 2 2
7 8 8 8 9 9 9 10 9 9 9 9 9 9 9 9 13 13 13 9 9 8 7 7 7 7 8 9 11 12 10 8 6 4 3 2 2 2 1 0 0 1 2
7 8 8 8 9 9 9 9 8 7 8 7 8 8 8 9 12 13 13 10 9 8 8 7 7 7 6 7 8 8 7 5 4 2 2 2 2 2 2 1 0 2 3
7 7 7 7 8 8 8 8 6 7 7 6 6 7 8 7 10 11 10 7 8 8 7 7 7 7 8 8 7 6 5 4 4 4 1 1 3 4 4 2 1 1 2
7 7 7 7 7 8 8 7 6 6 6 7 8 7 7 6 8 10 9 6 6 5 5 6 8 7 7 7 6 5 4 3 3 4 3 3 2 1 5 3 2 1 1
6 7 7 7 7 7 7 6 6 7 7 7 8 7 7 7 7 8 8 5 5 4 4 3 3 6 6 6 4 3 1 1 1 2 2 3 2 2 1 2 3 3 2
6 7 7 6 6 6 7 6 6 6 7 6 6 6 6 6 6 7 8 7 5 4 3 2 2 3 4 4 3 2 3 3 2 2 3 3 3 3 3 3 3 5 6
6 7 6 7 6 5 6 6 5 5 5 4 5 5 4 4 5 9 9 8 6 3 2 2 3 4 4 4 4 4 3 2 2 2 2 2 3 3 4 3 2 2 4
7 6 6 6 6 6 4 4 4 4 4 4 4 3 3 3 3 3 3 3 5 4 3 4 6 7 6 5 4 4 3 2 2 2 2 2 3 3 2 3 3 3 3
7 6 6 6 6 6 5 4 3 2 2 4 3 3 3 2 1 1 2 2 2 2 2 3 3 4 4 4 3 3 3 3 2 2 2 2 3 3 3 3 2 2 2
6 5 4 4 4 5 5 5 9 6 6 5 5 4 2 2 2 2 3 3 3 3 3 3 3 3 3 2 2 2 2 3 2 2 2 2 2 3 3 3 2 2 3
6 5 4 4 4 4 4 4 4 6 9 8 6 5 4 3 2 2 3 4 4 4 3 2 1 1 1 1 1 1 2 2 2 2 2 2 2 2 2 3 3 3 3
5 5 4 3 3 3 3 3 3 4 3 3 4 4 3 2 2 2 3 3 3 3 1 1 0 0 0 1 1 1 1 1 1 2 2 2 3 2 3 3 3 4 4
4 3 3 3 3 3 3 3 3 3 3 2 1 2 3 2 3 3 3 2 1 1 0 0 0 0 0 0 1 1 1 1 1 1 2 3 3 3 3 3 4 5 3
3 5 4 3 3 3 3 3 2 2 2 1 1 0 1 1 1 2 1 0 0 0 0 0 0 0 0 0 0 0 1 1 1 1 2 2 3 3 3 5 4 4 3
3 4 5 3 2 2 2 2 2 2 2 1 1 1 1 0 0 1 1 1 1 1 1 1 1 1 0 0 0 0 0 1 1 2 2 3 3 3 3 4 4 4 4
4 3 3 3 2 2 2 2 2 2 2 2 1 1 2 1 1 1 2 2 1 1 1 1 1 1 1 1 1 1 1 2 2 2 3 3 3 3 4 4 4 4 3
4 3 3 2 2 2 2 2 2 2 2 2 2 2 1 2 2 2 2 2 2 1 2 2 2 2 2 1 2 2 2 2 2 2 3 3 4 4 4 4 5 5 4
3 3 3 2 2 2 2 2 2 2 3 3 3 2 3 3 3 3 3 2 2 2 2 3 3 4 4 3 2 2 2 2 2 3 4 4 4 4 4 4 4 5 4
3 3 3 3 3 3 3 2 2 3 3 3 3 3 3 3 3 3 3 3 3 3 4 4 3 4 5 6 5 4 3 4 4 3 3 4 5 5 5 5 4 4 4
3 3 3 3 3 3 3 3 4 4 4 4 3 3 3 3 4 4 3 3 3 4 4 4 5 6 6 5 6 5 5 5 5 4 4 4 5 4 5 4 5 4 4
Wind_Direction
52 60 68 69 74 79 79 78 78 74 70 73 75 75 74 75 77 83 83 85 85 79 77 83 82 85 90 88 90 93 93 104 115 101 71 55 66 58 31 12 353 320 315
57 66 72 73 75 76 75 74 76 75 69 70 74 75 76 75 76 81 84 81 84 82 80 83 81 84 82 85 90 91 90 90 115 114 78 50 51 42 25 11 11 7 326
68 74 74 72 73 75 75 74 74 74 70 67 69 71 74 75 75 77 81 80 78 76 76 80 81 88 85 84 87 89 89 88 91 108 91 60 54 39 34 20 16 4 355
70 75 76 75 75 76 74 71 70 70 70 67 67 69 72 76 77 78 81 79 76 72 70 72 75 85 93 93 91 92 95 92 92 95 90 68 53 32 43 26 10 3 355
71 74 76 76 76 76 74 72 70 69 70 69 68 65 65 71 77 82 81 82 79 74 67 66 71 81 84 89 102 104 103 99 96 92 84 69 48 38 33 360 358 338 346
74 75 77 78 78 77 77 76 73 69 67 68 67 67 65 70 77 78 83 79 77 77 73 66 67 68 75 79 89 95 104 113 116 107 99 99 81 59 359 0 359 1 339
76 79 79 80 80 78 80 77 74 71 69 67 66 69 69 72 80 80 79 80 75 70 69 68 68 62 71 80 79 75 72 84 107 128 130 153 176 193 182 71 9 313 291
78 79 82 84 84 81 79 77 74 73 71 70 68 70 71 71 83 86 83 77 72 65 63 67 74 63 67 87 86 76 66 59 68 101 158 195 209 200 194 196 252 276 276
79 80 83 87 88 87 84 80 76 77 72 67 64 67 72 65 78 88 87 81 74 63 58 59 69 70 69 84 86 79 62 34 33 45 126 230 236 216 182 168 171 359 338
79 81 81 84 87 88 88 85 80 81 79 76 67 59 66 65 75 88 90 91 83 70 56 49 55 66 71 80 85 84 66 20 6 16 26 26 41 86 179 192 195 210 293
87 86 82 82 86 90 88 86 90 88 81 75 69 57 54 55 64 79 86 92 99 85 66 46 37 53 71 84 93 92 93 68 33 31 25 19 20 28 48 216 213 213 233
89 86 83 82 90 95 95 90 88 92 87 79 75 62 47 41 50 74 84 92 101 92 77 41 15 41 68 81 88 94 103 95 68 48 34 15 2 353 340 320 253 230 237
93 90 89 86 82 89 97 98 89 86 90 85 80 72 51 37 44 62 74 80 82 81 63 39 49 63 74 65 65 80 85 74 66 50 24 355 328 313 313 323 336 291 260
98 93 92 91 84 77 80 91 101 105 104 99 95 88 68 49 42 41 47 54 55 57 47 46 58 66 67 65 59 53 51 55 62 45 358 331 330 341 357 358 352 350 341
96 91 88 89 93 84 73 62 84 88 134 133 131 126 114 85 27 72 86 59 51 54 65 51 43 41 43 39 41 42 38 41 42 26 8 359 358 2 1 353 350 344 339
103 98 96 99 99 101 99 74 47 61 87 105 125 127 98 124 125 86 63 56 60 91 82 66 55 49 47 36 29 25 26 26 19 12 14 9 0 356 353 354 346 336 324
119 118 111 109 109 106 104 106 88 52 60 72 89 106 110 116 89 60 52 63 70 90 83 83 75 53 37 27 19 9 3 0 352 7 18 10 1 357 351 348 347 335 323
114 118 119 116 110 104 102 104 112 113 93 50 39 64 80 74 58 59 78 84 62 55 77 102 94 27 342 336 341 349 2 10 20 24 21 11 4 353 347 342 340 329 317
124 124 124 119 112 107 104 102 99 101 104 93 53 29 34 54 57 55 67 80 92 76 70 50 317 285 285 302 331 359 9 14 23 19 12 2 354 346 339 333 326 320 312
129 142 136 130 123 120 118 118 116 117 121 125 128 7 4 47 37 21 36 82 124 169 260 290 297 240 230 312 14 41 48 27 12 2 349 342 338 332 327 323 322 321 314
128 136 135 129 141 148 148 152 154 155 165 184 223 240 206 178 279 297 301 248 220 231 230 220 221 213 206 213 233 243 278 314 322 324 325 326 328 325 318 313 311 310 308
136 138 143 150 155 164 166 166 170 180 193 207 240 269 228 219 249 264 262 250 232 227 219 208 219 230 233 232 231 245 271 283 289 301 311 316 317 318 318 316 320 320 321
141 145 147 156 164 168 163 167 177 189 202 215 227 240 244 242 249 251 253 245 230 221 206 202 215 228 230 232 234 246 265 277 280 285 299 308 313 317 317 315 319 324 329
156 160 162 165 170 175 180 187 195 203 210 220 227 239 248 247 246 249 248 241 228 220 211 213 223 234 235 230 231 239 251 262 269 274 284 292 301 307 309 310 314 319 320
168 173 178 180 183 189 193 199 207 214 220 226 232 240 245 243 242 246 243 234 227 227 227 223 226 235 240 239 237 241 246 254 259 266 272 279 290 297 301 305 311 318 320
184 189 191 192 199 200 200 206 215 221 226 230 233 236 240 242 243 244 238 228 227 231 233 229 230 233 238 241 243 242 244 255 265 268 266 272 283 291 301 298 307 310 311